Wind_Speed
19 18 16 15 14 12 12 11 10 9 8 7 7 6 6 5 5 5 5 5 5 5 5 5 6 6 6 7 7 7 7 8 8 9 9 10 10 10 10 10 11 11 11
22 20 19 17 16 15 13 12 11 10 10 9 8 8 7 7 7 6 6 6 6 6 7 7 7 8 8 8 8 9 9 9 9 10 10 11 11 11 11 11 12 12 12
24 23 21 20 18 17 15 14 13 12 12 11 10 9 9 8 8 8 8 7 7 7 7 8 8 8 9 9 10 10 10 10 11 11 12 12 12 12 12 13 13 13 13
26 25 24 22 21 19 17 16 15 14 13 13 12 11 11 10 10 9 9 9 8 8 8 9 9 9 10 10 11 11 11 12 12 13 13 14 14 14 14 14 14 14 14
28 27 26 24 23 21 20 18 17 16 15 14 14 13 13 12 11 11 10 10 10 10 9 9 10 10 11 11 12 12 12 13 13 14 14 15 15 15 15 15 15 15 15
30 29 28 27 25 24 22 21 19 18 17 16 15 15 14 14 13 12 12 12 11 11 11 11 11 11 11 12 12 13 13 14 15 15 15 15 15 15 15 15 16 16 16
32 31 30 29 27 26 24 23 21 20 19 18 17 16 16 15 15 14 14 13 13 12 12 12 12 12 13 13 13 14 14 15 15 16 16 16 16 15 15 16 16 16 16
34 33 32 31 29 28 26 25 23 22 21 20 19 18 17 17 16 16 16 15 15 14 13 13 13 13 14 14 14 15 15 16 16 16 16 16 16 16 16 16 16 17 17
35 34 34 33 31 30 28 27 25 24 23 22 21 20 19 18 18 18 17 17 16 16 15 15 15 15 15 15 16 16 16 17 17 16 17 17 17 17 17 17 18 18 18
36 36 35 34 33 32 30 28 27 26 25 24 23 22 21 20 19 19 19 19 18 18 18 17 16 16 16 17 17 17 18 18 18 17 18 18 18 18 18 18 19 19 20
37 36 36 35 35 34 33 30 29 28 27 26 25 24 23 22 22 21 21 20 20 20 20 19 19 18 18 18 19 19 19 19 19 19 19 19 19 18 19 19 19 20 21
38 37 36 35 35 35 33 32 30 30 29 28 27 26 25 24 23 23 22 22 22 22 22 21 21 20 19 20 20 20 20 20 20 20 20 20 19 19 20 20 20 21 22
39 39 37 35 34 34 34 33 32 30 29 29 29 28 27 26 25 24 24 24 24 23 23 23 22 22 21 21 21 21 21 21 21 21 21 21 21 21 21 22 22 22 23
40 40 39 37 35 35 35 35 33 30 31 30 30 29 29 28 27 26 26 25 25 25 25 25 24 24 23 22 22 22 22 22 22 22 23 23 23 23 23 23 23 23 23
37 39 40 39 37 36 36 36 36 33 31 31 30 29 29 29 28 28 27 27 26 27 27 27 26 25 25 24 23 23 23 23 24 24 24 24 24 24 25 24 24 25 25
36 37 38 39 37 37 36 36 36 34 33 33 32 31 30 29 28 28 27 27 27 27 26 27 27 27 26 26 26 25 25 25 26 26 26 26 26 26 26 26 26 27 27
35 36 37 38 38 38 36 36 35 34 33 33 32 31 30 29 29 29 28 28 28 28 28 28 28 28 27 27 27 27 27 27 27 27 28 28 28 27 27 27 28 28 29
34 35 36 37 38 38 37 36 36 35 33 32 32 32 30 30 30 30 29 29 29 28 29 29 29 29 28 29 29 29 29 29 29 29 29 29 29 29 29 29 29 30 31
33 34 35 36 37 38 37 36 35 36 35 34 33 33 32 32 31 31 30 29 30 30 30 30 30 30 30 31 31 31 31 31 30 30 31 31 31 32 32 32 32 33 34
30 31 33 35 36 36 36 36 36 36 36 35 34 33 32 31 31 31 31 30 30 31 31 31 31 32 32 32 33 33 33 34 33 33 33 33 34 33 34 35 35 36 36
29 30 31 33 35 36 35 33 33 34 35 36 35 34 34 33 33 32 32 32 32 32 32 33 33 33 33 34 35 35 35 35 36 36 35 35 35 35 36 36 37 37 38
27 28 29 30 33 35 36 34 34 34 34 36 36 35 35 35 34 35 34 33 33 33 34 34 34 34 35 35 35 36 36 37 37 38 37 37 37 37 38 38 38 39 40
26 27 27 29 31 34 35 35 36 34 34 35 37 36 35 35 35 35 34 34 35 35 35 35 36 36 37 37 37 37 37 37 37 38 39 39 38 39 40 40 41 41 42
25 26 27 28 29 32 32 33 33 33 33 33 35 37 37 36 36 36 35 35 35 36 36 36 37 37 38 38 39 39 38 38 39 39 40 41 40 41 41 41 42 43 43
24 26 27 28 29 30 30 30 31 32 33 34 35 36 36 36 36 37 36 36 37 38 38 38 38 39 39 40 40 39 40 40 41 41 41 42 42 42 42 42 42 44 45
23 25 26 26 27 28 29 30 31 32 32 33 34 36 37 38 38 38 38 37 38 39 39 39 39 39 40 40 41 41 41 41 41 42 43 43 43 43 43 44 44 45 46
Wind_Direction
240 239 240 240 240 242 243 244 246 246 241 239 239 240 241 244 251 257 262 266 272 278 280 282 282 286 289 291 292 294 298 301 304 306 309 310 310 310 311 313 315 316 314
240 240 240 241 240 242 244 245 246 247 244 241 241 243 243 247 251 257 262 267 273 277 279 279 280 283 286 290 292 294 297 301 301 302 306 307 307 307 308 310 313 314 313
238 238 239 240 241 242 244 245 247 247 245 242 242 244 246 248 251 256 263 268 272 276 278 280 281 282 286 289 291 293 295 297 299 301 303 304 304 303 303 306 308 309 310
237 237 238 238 240 241 243 244 246 246 245 243 243 245 247 249 250 255 261 265 270 274 276 278 280 284 287 287 289 291 293 295 297 299 300 301 301 301 301 302 304 306 307
237 237 238 237 239 240 242 244 245 245 246 246 245 246 247 249 251 254 258 263 267 272 274 275 279 284 287 288 289 291 293 294 296 298 298 299 299 299 300 301 302 302 304
236 236 237 237 238 239 241 244 245 245 246 246 246 247 248 249 251 253 256 260 264 269 272 275 278 282 286 289 290 292 294 294 296 298 298 298 298 298 298 300 301 301 302
236 236 236 236 238 238 240 242 244 245 246 246 246 247 249 250 251 253 255 259 262 266 271 274 276 280 284 288 290 292 295 295 297 298 299 298 297 298 298 299 300 300 300
236 235 236 236 237 238 239 241 243 244 245 246 247 247 249 250 251 253 254 258 261 265 269 272 276 279 282 285 288 292 295 296 297 298 297 297 296 296 296 297 298 298 298
234 235 235 235 236 237 239 240 241 242 244 245 247 248 249 251 252 253 254 257 260 263 267 272 275 278 280 282 286 291 295 296 297 297 296 296 295 295 294 295 296 297 297
233 234 234 234 235 236 237 239 240 242 244 245 246 247 249 251 252 253 254 256 259 263 266 270 275 278 279 281 284 289 292 294 295 295 295 295 295 293 293 293 294 295 296
233 234 234 234 234 234 236 238 239 241 243 244 245 247 248 250 252 254 256 257 259 261 265 269 273 277 278 282 284 287 290 291 293 293 294 295 294 292 292 292 292 294 295
231 232 233 233 233 233 234 237 239 241 243 244 244 246 248 249 251 254 256 258 259 261 264 268 271 273 277 280 283 286 288 289 290 291 293 293 293 292 291 291 291 293 294
230 231 231 232 234 234 233 235 238 239 241 244 244 245 247 249 251 253 256 258 260 261 263 266 270 273 276 279 281 283 286 287 288 290 291 291 291 291 291 291 290 292 293
229 230 231 232 234 234 233 234 235 238 241 243 244 245 247 248 250 253 256 258 260 262 264 266 269 272 275 277 280 281 284 286 287 289 290 290 289 289 290 291 291 291 292
228 230 232 231 234 234 234 233 234 237 240 241 243 246 247 248 250 252 256 258 260 262 265 267 268 270 272 274 277 281 283 285 286 288 289 289 289 289 290 290 290 290 291
230 232 233 232 233 233 233 235 237 240 241 243 245 246 247 249 250 252 255 258 261 263 265 268 267 269 271 273 276 278 281 283 284 286 287 288 288 288 288 289 289 289 290
231 231 232 232 232 231 232 234 236 241 243 242 243 244 246 248 250 252 255 259 262 263 265 268 268 268 270 272 275 277 279 281 283 284 285 286 286 287 287 287 288 288 288
230 232 235 233 231 231 232 235 238 240 242 242 242 243 245 247 250 252 255 258 260 263 265 266 269 269 270 271 274 277 278 280 282 284 285 284 285 285 285 286 288 288 287
228 231 233 233 233 232 234 235 237 240 243 244 243 243 244 247 249 251 253 256 259 263 265 267 267 268 270 273 274 276 278 279 281 283 283 284 284 284 284 286 287 287 287
229 231 232 234 234 233 235 239 240 242 243 243 242 243 244 247 248 251 253 255 259 263 266 268 269 269 270 273 274 276 277 278 279 280 281 282 283 283 283 285 286 286 286
233 234 235 237 235 235 237 241 242 242 243 243 243 244 245 249 251 252 253 257 260 264 267 268 270 271 271 272 274 276 276 277 278 279 280 282 282 283 284 284 285 286 286
235 237 238 240 239 238 239 243 244 245 244 243 244 246 247 251 254 255 255 258 262 266 269 269 271 273 274 275 276 278 278 278 278 279 280 282 283 282 283 284 285 285 285
237 238 241 243 242 241 241 244 244 243 245 244 245 246 249 252 254 255 256 258 262 266 269 269 271 273 275 276 277 278 279 279 279 280 281 281 283 283 283 283 284 284 285
237 239 242 243 243 241 243 247 243 244 245 245 247 250 251 254 255 255 256 260 263 266 269 270 272 273 275 276 277 277 278 279 278 279 281 281 283 284 282 282 283 285 285
240 242 244 244 246 246 246 246 245 246 247 247 251 252 253 256 257 256 257 260 264 266 269 270 271 273 275 275 276 276 277 278 278 279 279 280 282 283 283 283 283 284 284
246 247 247 246 249 249 248 248 247 247 250 251 252 254 255 257 258 257 258 262 265 266 268 269 270 272 274 275 275 275 276 278 278 278 278 279 280 281 282 283 284 284 284
Height
5852 5853 5854 5855 5856 5857 5858 5859 5860 5861 5861 5862 5863 5864 5865 5865 5866 5867 5867 5868 5868 5869 5869 5870 5870 5870 5871 5871 5871 5871 5871 5871 5870 5870 5870 5869 5869 5868 5868 5867 5867 5866 5865
5848 5850 5851 5852 5854 5855 5856 5857 5858 5859 5859 5860 5861 5862 5863 5864 5865 5865 5866 5867 5867 5868 5868 5868 5869 5869 5869 5869 5869 5869 5869 5869 5869 5868 5868 5868 5867 5867 5866 5865 5865 5864 5863
5844 5846 5847 5849 5851 5852 5853 5854 5855 5856 5857 5858 5859 5860 5861 5862 5863 5864 5864 5865 5866 5866 5866 5867 5867 5867 5867 5867 5867 5867 5867 5867 5867 5866 5866 5865 5865 5865 5864 5863 5863 5862 5861
5839 5841 5843 5845 5847 5849 5850 5851 5852 5854 5855 5856 5857 5858 5859 5860 5861 5862 5863 5863 5864 5864 5865 5865 5865 5865 5866 5865 5865 5865 5865 5865 5865 5864 5864 5863 5863 5862 5861 5861 5860 5860 5859
5834 5836 5839 5841 5843 5845 5846 5848 5849 5851 5852 5853 5854 5855 5856 5857 5859 5860 5860 5861 5862 5862 5863 5863 5863 5863 5863 5863 5863 5863 5863 5863 5862 5862 5861 5861 5860 5859 5859 5858 5858 5857 5856
5828 5831 5834 5836 5838 5840 5842 5844 5846 5847 5849 5850 5851 5852 5854 5855 5856 5857 5858 5859 5860 5860 5861 5861 5861 5861 5861 5861 5861 5861 5860 5860 5859 5859 5858 5858 5857 5856 5856 5855 5855 5854 5853
5822 5825 5828 5831 5833 5836 5838 5840 5842 5843 5845 5846 5848 5849 5850 5852 5853 5854 5855 5856 5857 5858 5858 5858 5859 5859 5859 5859 5858 5858 5858 5857 5857 5856 5856 5855 5854 5854 5853 5852 5852 5851 5850
5816 5819 5822 5825 5828 5831 5833 5835 5837 5839 5841 5843 5844 5846 5847 5848 5850 5851 5852 5853 5854 5855 5855 5856 5856 5856 5856 5856 5856 5855 5855 5854 5854 5853 5853 5852 5851 5851 5850 5849 5849 5848 5847
5808 5812 5816 5819 5822 5825 5828 5830 5832 5834 5836 5838 5840 5842 5843 5845 5846 5847 5849 5850 5851 5851 5852 5852 5853 5853 5853 5853 5853 5852 5852 5851 5851 5850 5849 5849 5848 5847 5847 5846 5846 5845 5844
5801 5805 5809 5812 5816 5819 5822 5825 5827 5829 5832 5834 5836 5837 5839 5841 5842 5844 5845 5846 5847 5848 5849 5849 5849 5849 5849 5849 5849 5849 5848 5848 5847 5847 5846 5845 5845 5844 5843 5843 5842 5842 5841
5793 5797 5801 5805 5809 5813 5816 5819 5822 5824 5826 5829 5831 5833 5835 5836 5838 5839 5841 5842 5843 5844 5845 5845 5845 5846 5846 5846 5845 5845 5845 5844 5844 5843 5842 5842 5841 5840 5840 5839 5838 5838 5837
5785 5790 5794 5798 5802 5806 5809 5813 5816 5818 5821 5823 5825 5827 5830 5832 5833 5835 5836 5837 5838 5839 5840 5841 5841 5842 5842 5841 5841 5841 5841 5840 5840 5839 5838 5838 5837 5836 5836 5835 5834 5834 5833
5777 5782 5787 5791 5795 5798 5802 5806 5809 5811 5815 5817 5820 5822 5824 5826 5828 5830 5831 5833 5834 5835 5835 5836 5837 5837 5837 5837 5837 5837 5836 5836 5836 5835 5834 5834 5833 5832 5831 5831 5830 5829 5828
5770 5774 5779 5783 5787 5791 5795 5799 5802 5805 5809 5812 5814 5817 5819 5821 5823 5825 5826 5827 5829 5829 5830 5831 5832 5832 5832 5832 5832 5832 5832 5831 5831 5830 5830 5829 5828 5827 5827 5826 5825 5824 5823
5762 5767 5771 5776 5780 5784 5788 5792 5796 5799 5802 5805 5808 5810 5813 5815 5817 5819 5821 5822 5823 5824 5825 5826 5826 5827 5827 5827 5827 5827 5827 5826 5826 5825 5825 5824 5823 5822 5822 5821 5820 5819 5818
5755 5760 5764 5769 5772 5776 5781 5785 5789 5792 5795 5799 5802 5804 5807 5809 5811 5813 5815 5816 5817 5818 5819 5820 5820 5821 5821 5821 5822 5822 5821 5821 5821 5820 5819 5819 5818 5817 5816 5815 5815 5814 5813
5749 5753 5757 5761 5765 5769 5774 5778 5782 5785 5788 5791 5795 5797 5800 5802 5805 5807 5809 5810 5811 5812 5813 5814 5814 5815 5815 5815 5816 5816 5816 5815 5815 5814 5814 5813 5812 5811 5810 5810 5809 5808 5806
5742 5746 5750 5754 5758 5762 5766 5771 5775 5779 5781 5785 5788 5790 5793 5796 5798 5800 5802 5804 5805 5806 5806 5807 5808 5808 5809 5809 5809 5810 5809 5809 5808 5808 5807 5806 5806 5805 5804 5803 5802 5801 5800
5735 5739 5744 5747 5751 5755 5760 5764 5768 5772 5775 5777 5780 5783 5786 5789 5791 5793 5795 5797 5798 5799 5800 5800 5801 5801 5802 5802 5802 5803 5802 5802 5801 5801 5800 5800 5799 5798 5797 5796 5795 5794 5793
5729 5734 5737 5741 5745 5750 5754 5758 5761 5765 5767 5770 5773 5776 5779 5781 5783 5785 5788 5790 5791 5792 5793 5793 5793 5794 5794 5795 5795 5795 5795 5794 5794 5794 5793 5792 5791 5790 5790 5789 5787 5786 5785
5725 5729 5732 5736 5740 5744 5748 5751 5755 5758 5760 5763 5766 5768 5771 5773 5776 5778 5780 5782 5784 5784 5785 5786 5786 5786 5787 5787 5787 5787 5787 5787 5786 5785 5785 5784 5783 5782 5781 5780 5779 5778 5776
5721 5724 5727 5731 5734 5738 5741 5745 5748 5751 5754 5756 5759 5761 5764 5766 5768 5770 5772 5774 5776 5776 5777 5777 5778 5778 5779 5779 5779 5779 5779 5779 5778 5777 5776 5776 5775 5774 5773 5771 5770 5769 5767
5716 5719 5722 5726 5729 5732 5735 5738 5741 5744 5746 5749 5752 5754 5756 5758 5760 5762 5764 5766 5767 5768 5768 5769 5770 5770 5770 5770 5770 5771 5770 5770 5769 5769 5768 5767 5766 5765 5764 5762 5761 5759 5758
5711 5714 5718 5720 5723 5726 5729 5732 5734 5737 5739 5742 5744 5747 5749 5751 5752 5754 5755 5757 5758 5759 5760 5760 5760 5761 5762 5761 5761 5761 5761 5761 5761 5760 5759 5758 5756 5755 5754 5752 5751 5749 5747
5706 5709 5712 5715 5718 5721 5723 5726 5728 5730 5732 5735 5738 5739 5741 5742 5744 5745 5747 5748 5749 5750 5751 5751 5751 5752 5752 5752 5752 5751 5751 5751 5750 5750 5750 5748 5747 5745 5744 5742 5740 5739 5737
5702 5705 5707 5709 5712 5714 5717 5719 5721 5723 5725 5727 5729 5731 5733 5734 5735 5737 5738 5739 5741 5741 5742 5742 5742 5742 5742 5742 5742 5741 5741 5740 5740 5739 5739 5738 5736 5735 5733 5731 5729 5727 5725